| time (UTC) | temp F | wind direction | speed MPH | gust MPH | rain 1hr in | rain 24hr in | rain mn in | humidity % | barometer mb |
| 20260505221023 | 68 | 232 | 11.0 | 16.0 | 0.00 | 0.00 | 0.00 | 1012.9 | |
| 20260505220502 | 69 | 212 | 6.0 | 17.0 | 0.00 | 0.00 | 0.00 | 1012.9 | |
| 20260505220003 | 69 | 224 | 7.0 | 17.0 | 0.00 | 0.00 | 0.00 | 1012.9 | |
| 20260505215525 | 70 | 222 | 9.0 | 17.0 | 0.00 | 0.00 | 0.00 | 1013.6 | |
| 20260505215002 | 71 | 200 | 6.0 | 16.0 | 0.00 | 0.00 | 0.00 | 1013.2 | |
| 20260505214523 | 70 | 208 | 8.0 | 16.0 | 0.00 | 0.00 | 0.00 | 1013.6 | |
| 20260505214002 | 69 | 196 | 5.0 | 16.0 | 0.00 | 0.00 | 0.00 | 1013.2 | |
| 20260505213503 | 68 | 243 | 9.0 | 18.0 | 0.00 | 0.00 | 0.00 | 1013.9 | |
| 20260505213003 | 68 | 220 | 9.0 | 18.0 | 0.00 | 0.00 | 0.00 | 1013.9 | |
| 20260505212502 | 69 | 205 | 7.0 | 15.0 | 0.00 | 0.00 | 0.00 | 1013.9 | |
| 20260505212002 | 68 | 214 | 7.0 | 15.0 | 0.00 | 0.00 | 0.00 | 1013.2 | |
| 20260505211502 | 68 | 237 | 8.0 | 16.0 | 0.00 | 0.00 | 0.00 | 1013.2 | |
| 20260505211003 | 69 | 228 | 9.0 | 16.0 | 0.00 | 0.00 | 0.00 | 1013.2 | |
| 20260505210502 | 69 | 209 | 7.0 | 15.0 | 0.00 | 0.00 | 0.00 | 1013.2 | |
| 20260505210023 | 68 | 223 | 8.0 | 15.0 | 0.00 | 0.00 | 0.00 | 1013.9 | |
| 20260505205503 | 69 | 208 | 8.0 | 15.0 | 0.00 | 0.00 | 0.00 | 1014.3 | |
| 20260505205002 | 69 | 186 | 8.0 | 13.0 | 0.00 | 0.00 | 0.00 | 1013.2 | |
| 20260505204502 | 69 | 200 | 6.0 | 17.0 | 0.00 | 0.00 | 0.00 | 1012.9 | |
| 20260505204003 | 69 | 215 | 9.0 | 17.0 | 0.00 | 0.00 | 0.00 | 1013.6 | |
| 20260505203503 | 68 | 200 | 7.0 | 17.0 | 0.00 | 0.00 | 0.00 | 1013.9 | |
| 20260505203024 | 68 | 227 | 11.0 | 17.0 | 0.00 | 0.00 | 0.00 | 1013.6 | |
| 20260505202502 | 68 | 205 | 8.0 | 13.0 | 0.00 | 0.00 | 0.00 | 1013.2 | |
| 20260505202002 | 69 | 217 | 6.0 | 14.0 | 0.00 | 0.00 | 0.00 | 1013.9 | |
| 20260505201503 | 68 | 183 | 8.0 | 14.0 | 0.00 | 0.00 | 0.00 | 1013.9 | |
| 20260505201024 | 67 | 209 | 7.0 | 17.0 | 0.00 | 0.00 | 0.00 | 1013.9 | |
| 20260505200503 | 66 | 208 | 9.0 | 17.0 | 0.00 | 0.00 | 0.00 | 1013.9 | |
| 20260505200023 | 66 | 198 | 7.0 | 14.0 | 0.00 | 0.00 | 0.00 | 1014.3 | |
| 20260505195502 | 66 | 221 | 8.0 | 15.0 | 0.00 | 0.00 | 0.00 | 1013.6 | |
| 20260505195001 | 67 | 213 | 6.0 | 15.0 | 0.00 | 0.00 | 0.00 | 1013.6 | |
| 20260505194503 | 67 | 213 | 7.0 | 15.0 | 0.00 | 0.00 | 0.00 | 1014.3 | |
| 20260505194004 | 68 | 218 | 9.0 | 18.0 | 0.00 | 0.00 | 0.00 | 1014.3 | |
| 20260505193502 | 67 | 231 | 11.0 | 18.0 | 0.00 | 0.00 | 0.00 | 1013.9 | |
| 20260505193024 | 67 | 227 | 8.0 | 14.0 | 0.00 | 0.00 | 0.00 | 1013.9 | |
| 20260505192502 | 68 | 203 | 7.0 | 14.0 | 0.00 | 0.00 | 0.00 | 1013.2 | |
| 20260505192003 | 67 | 195 | 8.0 | 14.0 | 0.00 | 0.00 | 0.00 | 1013.9 | |
| 20260505191503 | 66 | 217 | 6.0 | 14.0 | 0.00 | 0.00 | 0.00 | 1013.2 | |
| 20260505191024 | 66 | 196 | 7.0 | 11.0 | 0.00 | 0.00 | 0.00 | 1013.9 | |
| 20260505190503 | 66 | 195 | 7.0 | 12.0 | 0.00 | 0.00 | 0.00 | 1013.2 | |
| 20260505190003 | 66 | 194 | 8.0 | 14.0 | 0.00 | 0.00 | 0.00 | 1013.2 | |
| 20260505185503 | 65 | 187 | 7.0 | 14.0 | 0.00 | 0.00 | 0.00 | 1014.6 | |
| 20260505185003 | 66 | 206 | 8.0 | 15.0 | 0.00 | 0.00 | 0.00 | 1014.6 | |
| 20260505184523 | 66 | 218 | 7.0 | 15.0 | 0.00 | 0.00 | 0.00 | 1013.6 | |
| 20260505184002 | 66 | 205 | 8.0 | 16.0 | 0.00 | 0.00 | 0.00 | 1014.6 | |
| 20260505183503 | 65 | 220 | 9.0 | 18.0 | 0.00 | 0.00 | 0.00 | 1014.3 | |
| 20260505183003 | 65 | 229 | 10.0 | 18.0 | 0.00 | 0.00 | 0.00 | 1013.6 | |
| 20260505182503 | 65 | 209 | 6.0 | 13.0 | 0.00 | 0.00 | 0.00 | 1013.6 | |
| 20260505182002 | 64 | 192 | 7.0 | 14.0 | 0.00 | 0.00 | 0.00 | 1014.3 | |
| 20260505181502 | 65 | 217 | 7.0 | 14.0 | 0.00 | 0.00 | 0.00 | 1013.9 | |
| 20260505181002 | 66 | 194 | 7.0 | 14.0 | 0.00 | 0.00 | 0.00 | 1014.3 | |
| 20260505180503 | 64 | 208 | 6.0 | 17.0 | 0.00 | 0.00 | 0.00 | 1013.2 | |
| 20260505180002 | 63 | 234 | 7.0 | 17.0 | 0.00 | 0.00 | 0.00 | 1013.6 | |
| 20260505175502 | 63 | 226 | 6.0 | 12.0 | 0.00 | 0.00 | 0.00 | 1013.6 | |
| 20260505175003 | 64 | 222 | 7.0 | 12.0 | 0.00 | 0.00 | 0.00 | 1013.6 | |
| 20260505174502 | 64 | 198 | 5.0 | 12.0 | 0.00 | 0.00 | 0.00 | 1013.9 | |
| 20260505174003 | 64 | 165 | 5.0 | 12.0 | 0.00 | 0.00 | 0.00 | 1013.6 | |
| 20260505173502 | 63 | 225 | 5.0 | 11.0 | 0.00 | 0.00 | 0.00 | 1013.6 | |
| 20260505173002 | 63 | 225 | 7.0 | 13.0 | 0.00 | 0.00 | 0.00 | 1013.6 | |
| 20260505172502 | 64 | 226 | 7.0 | 13.0 | 0.00 | 0.00 | 0.00 | 1013.6 | |
| 20260505172001 | 63 | 261 | 6.0 | 12.0 | 0.00 | 0.00 | 0.00 | 1013.2 | |
| 20260505171502 | 64 | 231 | 3.0 | 12.0 | 0.00 | 0.00 | 0.00 | 1012.9 | |
| 20260505171002 | 63 | 226 | 7.0 | 12.0 | 0.00 | 0.00 | 0.00 | 1012.2 | |
| 20260505170504 | 63 | 258 | 6.0 | 9.0 | 0.00 | 0.00 | 0.00 | 1012.6 | |
| 20260505170003 | 62 | 210 | 4.0 | 10.0 | 0.00 | 0.00 | 0.00 | 1012.6 | |
| 20260505165502 | 62 | 268 | 4.0 | 10.0 | 0.00 | 0.00 | 0.00 | 1013.2 | |
| 20260505165002 | 62 | 261 | 6.0 | 10.0 | 0.00 | 0.00 | 0.00 | 1012.6 | |
| 20260505164524 | 62 | 256 | 4.0 | 12.0 | 0.00 | 0.00 | 0.00 | 1012.6 | |
| 20260505164003 | 62 | 233 | 6.0 | 12.0 | 0.00 | 0.00 | 0.00 | 1012.6 | |
| 20260505163502 | 62 | 218 | 4.0 | 9.0 | 0.00 | 0.00 | 0.00 | 1012.2 | |
| 20260505163002 | 61 | 194 | 2.0 | 8.0 | 0.00 | 0.00 | 0.00 | 1012.2 | |
| 20260505162503 | 61 | 219 | 4.0 | 8.0 | 0.00 | 0.00 | 0.00 | 1012.6 | |
| 20260505162002 | 61 | 211 | 5.0 | 9.0 | 0.00 | 0.00 | 0.00 | 1013.2 | |
| 20260505161502 | 60 | 205 | 3.0 | 9.0 | 0.00 | 0.00 | 0.00 | 1013.2 | |
| 20260505161002 | 59 | 221 | 3.0 | 12.0 | 0.00 | 0.00 | 0.00 | 1012.6 | |
| 20260505160505 | 59 | 240 | 6.0 | 12.0 | 0.00 | 0.00 | 0.00 | 1012.6 | |
| 20260505153002 | 58 | 229 | 3.0 | 5.0 | 0.00 | 0.00 | 0.00 | 1012.6 | |
| 20260505152502 | 58 | 208 | 3.0 | 9.0 | 0.00 | 0.00 | 0.00 | 1012.9 | |
| 20260505152002 | 57 | 243 | 4.0 | 9.0 | 0.00 | 0.00 | 0.00 | 1012.2 | |
| 20260505151524 | 57 | 237 | 4.0 | 7.0 | 0.00 | 0.00 | 0.00 | 1012.9 | |
| 20260505151002 | 57 | 252 | 3.0 | 6.0 | 0.00 | 0.00 | 0.00 | 1012.2 | |
| 20260505150503 | 56 | 238 | 3.0 | 6.0 | 0.00 | 0.00 | 0.00 | 1012.6 | |
| 20260505140502 | 55 | 240 | 0.0 | 3.0 | 0.00 | 0.00 | 0.00 | 1012.6 | |
| 20260505125003 | 55 | 208 | 1.0 | 2.0 | 0.00 | 0.00 | 0.00 | 1011.9 | |
| 20260505124502 | 55 | 202 | 1.0 | 1.0 | 0.00 | 0.00 | 0.00 | 1012.2 | |
| 20260505124024 | 55 | 225 | 0.0 | 2.0 | 0.00 | 0.00 | 0.00 | 1011.9 | |
| 20260505123524 | 55 | 2 | 1.0 | 2.0 | 0.00 | 0.00 | 0.00 | 1011.9 | |
| 20260505123003 | 55 | 48 | 1.0 | 2.0 | 0.00 | 0.00 | 0.00 | 1011.5 | |
| 20260505122502 | 55 | 360 | 0.0 | 2.0 | 0.00 | 0.00 | 0.00 | 1011.9 | |
| 20260505122003 | 55 | 293 | 0.0 | 2.0 | 0.00 | 0.00 | 0.00 | 1012.6 | |
| 20260505121503 | 55 | 359 | 1.0 | 2.0 | 0.00 | 0.00 | 0.00 | 1012.2 | |
| 20260505121003 | 54 | 315 | 0.0 | 2.0 | 0.00 | 0.00 | 0.00 | 1012.6 | |
| 20260505120503 | 54 | 336 | 1.0 | 2.0 | 0.00 | 0.00 | 0.00 | 1012.2 | |
| 20260505120024 | 54 | 348 | 1.0 | 3.0 | 0.00 | 0.00 | 0.00 | 1011.9 | |
| 20260505115502 | 54 | 346 | 1.0 | 3.0 | 0.00 | 0.00 | 0.00 | 1012.2 | |
| 20260505115002 | 54 | 14 | 1.0 | 3.0 | 0.00 | 0.00 | 0.00 | 1011.9 | |
| 20260505114503 | 54 | 357 | 2.0 | 5.0 | 0.00 | 0.00 | 0.00 | 1011.9 | |
| 20260505114003 | 54 | 6 | 3.0 | 5.0 | 0.00 | 0.00 | 0.00 | 1011.9 | |
| 20260505113503 | 54 | 8 | 2.0 | 4.0 | 0.00 | 0.00 | 0.00 | 1012.2 | |
| 20260505113003 | 54 | 276 | 1.0 | 5.0 | 0.00 | 0.00 | 0.00 | 1011.9 | |
| 20260505112503 | 54 | 285 | 3.0 | 6.0 | 0.00 | 0.00 | 0.00 | 1012.6 | |
| 20260505112023 | 55 | 266 | 3.0 | 7.0 | 0.00 | 0.00 | 0.00 | 1012.6 | |
| 20260505111503 | 55 | 237 | 4.0 | 7.0 | 0.00 | 0.00 | 0.00 | 1012.6 | |
| 20260505111002 | 55 | 250 | 3.0 | 5.0 | 0.00 | 0.00 | 0.00 | 1012.2 | |
| 20260505110503 | 55 | 216 | 2.0 | 3.0 | 0.00 | 0.00 | 0.00 | 1012.6 | |
| 20260505102002 | 55 | 248 | 0.0 | 2.0 | 0.00 | 0.00 | 0.00 | 1012.2 | |
| 20260505101503 | 55 | 187 | 1.0 | 2.0 | 0.00 | 0.00 | 0.00 | 1012.2 | |
| 20260505101024 | 55 | 84 | 1.0 | 3.0 | 0.00 | 0.00 | 0.00 | 1011.9 | |
| 20260505100502 | 55 | 83 | 1.0 | 3.0 | 0.00 | 0.00 | 0.00 | 1012.2 | |
| 20260505100023 | 55 | 65 | 1.0 | 4.0 | 0.00 | 0.00 | 0.00 | 1011.9 | |
| 20260505095526 | 55 | 110 | 1.0 | 4.0 | 0.00 | 0.00 | 0.00 | 1011.9 | |
| 20260505095023 | 55 | 168 | 2.0 | 5.0 | 0.00 | 0.00 | 0.00 | 1012.6 | |
| 20260505094502 | 55 | 188 | 2.0 | 5.0 | 0.00 | 0.00 | 0.00 | 1012.2 | |
| 20260505094002 | 55 | 217 | 3.0 | 5.0 | 0.00 | 0.00 | 0.00 | 1012.6 | |
| 20260505093503 | 55 | 174 | 2.0 | 4.0 | 0.00 | 0.00 | 0.00 | 1012.2 | |
| 20260505093003 | 55 | 182 | 3.0 | 4.0 | 0.00 | 0.00 | 0.00 | 1012.9 | |
| 20260505092502 | 56 | 171 | 2.0 | 3.0 | 0.00 | 0.00 | 0.00 | 1012.6 | |
| 20260505092024 | 55 | 147 | 1.0 | 3.0 | 0.00 | 0.00 | 0.00 | 1012.6 | |
| 20260505091503 | 55 | 94 | 2.0 | 3.0 | 0.00 | 0.00 | 0.00 | 1012.6 | |
| 20260505091003 | 56 | 120 | 1.0 | 3.0 | 0.00 | 0.00 | 0.00 | 1012.2 | |
| 20260505090502 | 55 | 101 | 1.0 | 4.0 | 0.00 | 0.00 | 0.00 | 1012.6 | |
| 20260505090002 | 55 | 140 | 1.0 | 5.0 | 0.00 | 0.00 | 0.00 | 1012.6 | |
| 20260505085523 | 55 | 241 | 2.0 | 5.0 | 0.00 | 0.00 | 0.00 | 1012.9 | |
| 20260505085004 | 55 | 227 | 2.0 | 3.0 | 0.00 | 0.00 | 0.00 | 1012.9 | |
| 20260505084502 | 55 | 209 | 2.0 | 3.0 | 0.00 | 0.00 | 0.00 | 1013.2 | |
| 20260505084003 | 55 | 220 | 1.0 | 3.0 | 0.00 | 0.00 | 0.00 | 1013.2 | |
| 20260505083502 | 55 | 247 | 1.0 | 5.0 | 0.00 | 0.00 | 0.00 | 1012.9 | |
| 20260505083002 | 55 | 223 | 2.0 | 5.0 | 0.00 | 0.00 | 0.00 | 1012.6 | |
| 20260505082503 | 55 | 221 | 3.0 | 3.0 | 0.00 | 0.00 | 0.00 | 1012.9 | |
| 20260505082002 | 56 | 197 | 1.0 | 2.0 | 0.00 | 0.00 | 0.00 | 1012.9 | |
| 20260505081502 | 55 | 201 | 1.0 | 2.0 | 0.00 | 0.00 | 0.00 | 1012.9 | |
| 20260505081004 | 55 | 237 | 1.0 | 2.0 | 0.00 | 0.00 | 0.00 | 1012.9 | |
| 20260505080502 | 55 | 202 | 1.0 | 2.0 | 0.00 | 0.00 | 0.00 | 1012.9 | |
| 20260505080003 | 55 | 207 | 1.0 | 2.0 | 0.00 | 0.00 | 0.00 | 1012.9 | |
| 20260505075502 | 55 | 224 | 1.0 | 2.0 | 0.00 | 0.00 | 0.00 | 1013.2 | |
| 20260505075003 | 55 | 270 | 0.0 | 2.0 | 0.00 | 0.00 | 0.00 | 1013.2 | |
| 20260505074502 | 55 | 228 | 1.0 | 2.0 | 0.00 | 0.00 | 0.00 | 1013.2 | |
| 20260505074003 | 55 | 303 | 1.0 | 3.0 | 0.00 | 0.00 | 0.00 | 1013.6 | |
| 20260505073503 | 55 | 299 | 1.0 | 3.0 | 0.00 | 0.00 | 0.00 | 1013.6 | |
| 20260505073023 | 55 | 292 | 2.0 | 3.0 | 0.00 | 0.00 | 0.00 | 1013.9 | |
| 20260505072502 | 55 | 308 | 1.0 | 3.0 | 0.00 | 0.00 | 0.00 | 1013.9 | |
| 20260505072003 | 55 | 288 | 2.0 | 3.0 | 0.00 | 0.00 | 0.00 | 1013.6 | |
| 20260505071502 | 56 | 285 | 1.0 | 2.0 | 0.00 | 0.00 | 0.00 | 1013.6 | |
| 20260505071002 | 56 | 360 | 0.0 | 2.0 | 0.00 | 0.00 | 0.00 | 1013.6 | |
| 20260505070502 | 56 | 309 | 0.0 | 2.0 | 0.00 | 0.00 | 0.00 | 1013.6 | |
| 20260505070002 | 56 | 349 | 1.0 | 3.0 | 0.00 | 0.00 | 0.00 | 1013.9 | |
| 20260505065503 | 55 | 321 | 1.0 | 3.0 | 0.00 | 0.00 | 0.00 | 1013.2 | |
| 20260505065003 | 55 | 282 | 1.0 | 2.0 | 0.00 | 0.00 | 0.00 | 1013.6 | |
| 20260505064502 | 56 | 0 | 0.0 | 2.0 | 0.00 | 0.00 | 0.00 | 1013.6 | |
| 20260505064003 | 57 | 260 | 1.0 | 2.0 | 0.00 | 0.00 | 0.00 | 1013.6 | |
| 20260505063504 | 57 | 266 | 2.0 | 2.0 | 0.00 | 0.00 | 0.00 | 1013.6 | |
| 20260505063003 | 57 | 192 | 1.0 | 2.0 | 0.00 | 0.00 | 0.00 | 1013.9 | |
| 20260505062523 | 58 | 207 | 1.0 | 3.0 | 0.00 | 0.00 | 0.00 | 1013.9 | |
| 20260505062002 | 58 | 160 | 1.0 | 5.0 | 0.00 | 0.00 | 0.00 | 1013.9 | |
| 20260505061503 | 58 | 159 | 3.0 | 5.0 | 0.00 | 0.00 | 0.00 | 1013.6 | |
| 20260505061003 | 57 | 170 | 3.0 | 4.0 | 0.00 | 0.00 | 0.00 | 1013.9 | |
| 20260505060503 | 58 | 111 | 2.0 | 4.0 | 0.00 | 0.00 | 0.00 | 1014.3 | |
| 20260505060002 | 58 | 126 | 2.0 | 6.0 | 0.00 | 0.00 | 0.00 | 1013.9 | |
| 20260505055503 | 58 | 169 | 3.0 | 6.0 | 0.00 | 0.00 | 0.00 | 1013.9 | |
| 20260505055002 | 58 | 150 | 3.0 | 6.0 | 0.00 | 0.00 | 0.00 | 1014.3 | |
| 20260505054502 | 58 | 159 | 2.0 | 7.0 | 0.00 | 0.00 | 0.00 | 1014.6 | |
| 20260505054003 | 58 | 172 | 3.0 | 7.0 | 0.00 | 0.00 | 0.00 | 1014.3 | |
| 20260505053525 | 58 | 189 | 3.0 | 5.0 | 0.00 | 0.00 | 0.00 | 1014.6 | |
| 20260505053002 | 58 | 181 | 2.0 | 5.0 | 0.00 | 0.00 | 0.00 | 1014.3 | |
| 20260505052503 | 58 | 158 | 3.0 | 6.0 | 0.00 | 0.00 | 0.00 | 1013.9 | |
| 20260505052004 | 58 | 187 | 3.0 | 6.0 | 0.00 | 0.00 | 0.00 | 1014.3 | |
| 20260505051503 | 58 | 186 | 2.0 | 4.0 | 0.00 | 0.00 | 0.00 | 1014.3 | |
| 20260505051002 | 59 | 185 | 2.0 | 5.0 | 0.00 | 0.00 | 0.00 | 1013.9 | |
| 20260505050502 | 58 | 207 | 2.0 | 6.0 | 0.00 | 0.00 | 0.00 | 1014.6 | |
| 20260505041503 | 57 | 246 | 4.0 | 8.0 | 0.00 | 0.00 | 0.00 | 1014.6 | |
| 20260505041002 | 57 | 233 | 4.0 | 9.0 | 0.00 | 0.00 | 0.00 | 1014.6 | |
| 20260505040502 | 58 | 240 | 6.0 | 9.0 | 0.00 | 0.00 | 0.00 | 1014.3 | |
| 20260505040002 | 58 | 224 | 3.0 | 7.0 | 0.00 | 0.00 | 0.00 | 1014.6 | |
| 20260505035504 | 58 | 218 | 5.0 | 9.0 | 0.00 | 0.00 | 0.00 | 1014.6 | |
| 20260505035004 | 58 | 230 | 6.0 | 9.0 | 0.00 | 0.00 | 0.00 | 1013.9 | |
| 20260505034524 | 58 | 230 | 4.0 | 12.0 | 0.00 | 0.00 | 0.00 | 1013.9 | |
| 20260505034003 | 58 | 223 | 5.0 | 12.0 | 0.00 | 0.00 | 0.00 | 1013.9 | |
| 20260505033503 | 58 | 221 | 7.0 | 11.0 | 0.00 | 0.00 | 0.00 | 1014.3 | |
| 20260505033003 | 58 | 228 | 5.0 | 10.0 | 0.00 | 0.00 | 0.00 | 1013.6 | |
| 20260505032502 | 58 | 229 | 4.0 | 12.0 | 0.00 | 0.00 | 0.00 | 1013.6 | |
| 20260505032003 | 58 | 221 | 6.0 | 14.0 | 0.00 | 0.00 | 0.00 | 1013.9 | |
| 20260505031524 | 58 | 230 | 8.0 | 14.0 | 0.00 | 0.00 | 0.00 | 1013.6 | |
| 20260505031003 | 58 | 235 | 7.0 | 11.0 | 0.00 | 0.00 | 0.00 | 1013.9 | |
| 20260505030503 | 58 | 232 | 6.0 | 11.0 | 0.00 | 0.00 | 0.00 | 1013.9 | |
| 20260505030002 | 58 | 242 | 5.0 | 13.0 | 0.00 | 0.00 | 0.00 | 1013.6 | |
| 20260505025525 | 58 | 239 | 6.0 | 15.0 | 0.00 | 0.00 | 0.00 | 1013.6 | |
| 20260505025003 | 59 | 248 | 5.0 | 15.0 | 0.00 | 0.00 | 0.00 | 1014.3 | |
| 20260505024502 | 59 | 241 | 6.0 | 12.0 | 0.00 | 0.00 | 0.00 | 1014.3 | |
| 20260505024003 | 59 | 220 | 8.0 | 16.0 | 0.00 | 0.00 | 0.00 | 1014.3 | |
| 20260505023503 | 59 | 221 | 8.0 | 17.0 | 0.00 | 0.00 | 0.00 | 1014.3 | |
| 20260505023025 | 58 | 229 | 11.0 | 17.0 | 0.00 | 0.00 | 0.00 | 1013.6 | |
| 20260505022524 | 59 | 229 | 9.0 | 16.0 | 0.00 | 0.00 | 0.00 | 1014.3 | |
| 20260505022004 | 59 | 225 | 8.0 | 16.0 | 0.00 | 0.00 | 0.00 | 1014.3 | |
| 20260505021502 | 60 | 234 | 8.0 | 16.0 | 0.00 | 0.00 | 0.00 | 1014.3 | |
| 20260505021004 | 60 | 227 | 6.0 | 18.0 | 0.00 | 0.00 | 0.00 | 1014.6 | |
| 20260505020525 | 60 | 229 | 11.0 | 18.0 | 0.00 | 0.00 | 0.00 | 1014.3 | |
| 20260505020003 | 60 | 231 | 10.0 | 19.0 | 0.00 | 0.00 | 0.00 | 1013.9 | |
| 20260505015502 | 60 | 229 | 10.0 | 19.0 | 0.00 | 0.00 | 0.00 | 1013.9 | |
| 20260505015003 | 60 | 225 | 10.0 | 17.0 | 0.00 | 0.00 | 0.00 | 1013.9 | |
| 20260505014503 | 60 | 223 | 11.0 | 17.0 | 0.00 | 0.00 | 0.00 | 1013.2 | |
| 20260505014002 | 61 | 217 | 9.0 | 17.0 | 0.00 | 0.00 | 0.00 | 1013.9 | |
| 20260505013503 | 61 | 235 | 8.0 | 18.0 | 0.00 | 0.00 | 0.00 | 1013.6 | |
| 20260505013003 | 62 | 230 | 10.0 | 18.0 | 0.00 | 0.00 | 0.00 | 1013.9 | |
| 20260505012502 | 63 | 222 | 8.0 | 17.0 | 0.00 | 0.00 | 0.00 | 1013.6 | |
| 20260505012003 | 64 | 227 | 9.0 | 17.0 | 0.00 | 0.00 | 0.00 | 1013.2 | |
| 20260505011502 | 64 | 217 | 6.0 | 12.0 | 0.00 | 0.00 | 0.00 | 1013.2 | |
| 20260505011002 | 65 | 219 | 7.0 | 12.0 | 0.00 | 0.00 | 0.00 | 1013.2 | |
| 20260505010503 | 65 | 212 | 6.0 | 13.0 | 0.00 | 0.00 | 0.00 | 1012.9 | |
| 20260505010024 | 65 | 217 | 8.0 | 13.0 | 0.00 | 0.00 | 0.00 | 1012.9 | |
| 20260505005502 | 65 | 239 | 8.0 | 15.0 | 0.00 | 0.00 | 0.00 | 1013.2 | |
| 20260505005005 | 65 | 228 | 8.0 | 16.0 | 0.00 | 0.00 | 0.00 | 1013.6 | |
| 20260505004502 | 65 | 226 | 8.0 | 16.0 | 0.00 | 0.00 | 0.00 | 1013.9 | |
| 20260505004025 | 65 | 229 | 6.0 | 16.0 | 0.00 | 0.00 | 0.00 | 1014.3 | |
| 20260505003524 | 65 | 229 | 10.0 | 16.0 | 0.00 | 0.00 | 0.00 | 1013.6 | |
| 20260505003003 | 65 | 228 | 9.0 | 16.0 | 0.00 | 0.00 | 0.00 | 1013.9 | |
| 20260505002504 | 65 | 222 | 9.0 | 18.0 | 0.00 | 0.00 | 0.00 | 1013.6 | |
| 20260505002024 | 65 | 222 | 8.0 | 18.0 | 0.00 | 0.00 | 0.00 | 1014.3 | |
| 20260505001524 | 65 | 221 | 9.0 | 18.0 | 0.00 | 0.00 | 0.00 | 1014.3 | |
| 20260505001002 | 66 | 233 | 11.0 | 18.0 | 0.00 | 0.00 | 0.00 | 1013.9 | |
| 20260505000502 | 66 | 232 | 9.0 | 18.0 | 0.00 | 0.00 | 0.00 | 1013.9 | |
| 20260505000003 | 66 | 215 | 8.0 | 18.0 | 0.00 | 0.00 | 0.00 | 1013.6 | |
| 20260504235504 | 66 | 227 | 10.0 | 18.0 | 0.00 | 0.00 | 0.00 | 1013.6 | |
| 20260504235004 | 67 | 225 | 9.0 | 15.0 | 0.00 | 0.00 | 0.00 | 1013.2 | |
| 20260504234502 | 67 | 210 | 9.0 | 15.0 | 0.00 | 0.00 | 0.00 | 1012.9 | |
| 20260504234003 | 66 | 229 | 8.0 | 15.0 | 0.00 | 0.00 | 0.00 | 1012.6 | |
| 20260504233524 | 67 | 243 | 9.0 | 16.0 | 0.00 | 0.00 | 0.00 | 1012.6 | |
| 20260504233003 | 66 | 242 | 10.0 | 16.0 | 0.00 | 0.00 | 0.00 | 1012.9 | |
| 20260504232502 | 66 | 231 | 8.0 | 17.0 | 0.00 | 0.00 | 0.00 | 1012.9 | |
| 20260504232024 | 66 | 216 | 7.0 | 17.0 | 0.00 | 0.00 | 0.00 | 1013.6 | |
| 20260504231504 | 66 | 221 | 8.0 | 18.0 | 0.00 | 0.00 | 0.00 | 1012.9 | |
| 20260504231003 | 66 | 224 | 10.0 | 22.0 | 0.00 | 0.00 | 0.00 | 1012.9 | |
| 20260504230502 | 67 | 237 | 12.0 | 22.0 | 0.00 | 0.00 | 0.00 | 1012.9 | |
| 20260504230003 | 67 | 215 | 8.0 | 16.0 | 0.00 | 0.00 | 0.00 | 1012.9 | |
| 20260504225504 | 68 | 209 | 8.0 | 15.0 | 0.00 | 0.00 | 0.00 | 1012.9 | |
| 20260504225003 | 68 | 219 | 7.0 | 17.0 | 0.00 | 0.00 | 0.00 | 1012.9 | |
| 20260504224503 | 68 | 211 | 9.0 | 17.0 | 0.00 | 0.00 | 0.00 | 1013.6 | |
| 20260504224002 | 68 | 219 | 8.0 | 17.0 | 0.00 | 0.00 | 0.00 | 1013.6 | |
| 20260504223502 | 68 | 225 | 11.0 | 18.0 | 0.00 | 0.00 | 0.00 | 1013.2 | |
| 20260504223024 | 68 | 209 | 9.0 | 19.0 | 0.00 | 0.00 | 0.00 | 1013.9 | |
| 20260504222502 | 67 | 218 | 8.0 | 19.0 | 0.00 | 0.00 | 0.00 | 1014.3 | |
| 20260504222003 | 67 | 223 | 12.0 | 19.0 | 0.00 | 0.00 | 0.00 | 1014.3 | |
| 20260504221502 | 67 | 235 | 11.0 | 18.0 | 0.00 | 0.00 | 0.00 | 1013.2 |